Regional Weather Roundup
Issued by NWS Charleston, SC

Current Version | Previous Version | Text Only | Print | Product List | Glossary Off
Versions: 1 2 3 4 5 6 7 8 9 10 11 12 13 14 15 16 17 18 19 20 21 22 23 24 25 26 27 28 29 30 31 32 33 34 35 36 37 38 39 40 41 42 43 44 45 46 47 48 49 50

283
ASUS42 KCHS 270812
RWRCHS

REGIONAL WEATHER ROUNDUP
NATIONAL WEATHER SERVICE CHARLESTON SC
400 AM EDT MON MAR 27 2017

NOTE: "FAIR" INDICATES FEW OR NO CLOUDS BELOW 12,000 FEET WITH NO
SIGNIFICANT WEATHER AND/OR OBSTRUCTIONS TO VISIBILITY.

NOT ALL STATIONS ARE QUALITY CONTROLLED. USE DATA WITH CAUTION...
ESPECIALLY DEWPOINT OBSERVATIONS.

SCZ027-030-031-034>040-042>050-270900-
...SOUTHEAST SOUTH CAROLINA...

CITY           SKY/WX    TMP DP  RH WIND       PRES   REMARKS
N CHARLESTON   PTCLDY    61  55  81 CALM      30.11F
WATERFRONT PRK   N/A     64  60  87 S6        30.10F
JOHNS ISLAND   FAIR      63  59  88 S3        30.11F
PINOPOLIS        N/A     61  57  88 CALM      30.02F
MONCKS CORNER  FAIR      54  52  94 CALM      30.11F
SUMMERVILLE    FAIR      57  55  94 CALM      30.11F
BEAUFORT MCAS  CLEAR     60  59  96 CALM      30.10F
BEAUFORT ARPT  FAIR      63  59  88 CALM      30.10F
HILTON HEAD IS CLEAR     64  63  94 VRB3      30.11F
WALTERBORO     SUNNY     55  54  94 CALM      30.11F
ALLENDALE      CLOUDY    61  59  94 S3        30.09F

...SOUTHERN MIDLANDS AND PEE DEE...

CITY           SKY/WX    TMP DP  RH WIND       PRES   REMARKS
GEORGETOWN     FAIR      54  52  94 CALM      30.13S FOG
KINGSTREE      FAIR      54  52  94 CALM      30.11F
ORANGEBURG     PTCLDY    58  57  97 S5        30.10F
BARNWELL       FAIR      63  61  94 CALM      30.10F
AIKEN          FAIR      57  55  94 S6        30.12F
MANNING        FAIR      59  55  88 CALM      30.11F
COLUMBIA       PTCLDY    63  57  81 S6        30.08F
SUMTER         PTCLDY    57  54  91 CALM      30.08F
FLORENCE       CLEAR     57  57 100 S6        30.11F
MYRTLE BEACH   CLEAR     63  57  82 S3        30.13F
N MYRTLE BEACH CLEAR     63  57  81 S7        30.11F

$$

GAZ063-065-086>088-099>101-113>116-118-119-134>141-150-270900-
...SOUTHEAST GEORGIA...

CITY           SKY/WX    TMP DP  RH WIND       PRES   REMARKS
SAVANNAH ARPT  PTCLDY    62  58  86 S3        30.10F
HUNTER AAF     CLEAR     64  63  96 CALM      30.07F
FORT STEWART   CLEAR     56  55  95 CALM      30.07F
STATESBORO     PTCLDY    61  32  33 CALM      30.09F
SYLVANIA       SUNNY    N/A N/A N/A CALM      30.11S
CLAXTON        FAIR     N/A N/A N/A CALM      30.10S

...CSRA...CENTRAL AND FAR SOUTHEAST GEORGIA...

CITY           SKY/WX    TMP DP  RH WIND       PRES   REMARKS
THOMSON        PTCLDY    62  57  84 SW5       30.12F
AUGUSTA-BUSH   CLEAR     62  58  86 SE6       30.08F
AUGUSTA-DANIEL CLEAR     62  56  80 SE6       30.08F
SWAINSBORO     FAIR      61  61 100 SE8       30.08F
VIDALIA        CLOUDY    63  61  94 SE3       30.09F
EASTMAN        CLOUDY    66  52  60 S3        30.10S
HAZLEHURST     FAIR      64  62  93 SE3       30.07F
ALMA           CLEAR     61  60  97 CALM      30.07F
WAYCROSS       CLEAR     64  64 100 S3        30.08F
JESUP          PTSUNNY   55  54  94 CALM      30.09F
BAXLEY         FAIR      63  63 100 CALM      30.08F
BRUNSWICK      FOG       61  61 100 CALM      30.10F VSB 1/2
SAINT SIMONS   MOCLDY    65  62  90 CALM      30.09F

$$

SCZ027-028-034-036>038-045-046-048>050-GAZ119-141-270900-
...LAKE AND SUPPLEMENTAL COASTAL OBSERVATIONS...

STATION/POSITION TIME  TEMP    WIND        PRES    WAVE   SWELL
                       AIR SEA DIR/SP/G            HT/PER HT/PER/DIR
                 (UTC) (F)     (DEG/KT/KT) (MB)    (FT/S) (FT/S/D)
WINYAH BAY       NOT AVBL
LAKE MURRAY      0720   64     170/ 10/ 15 1018.3F
ACE BASIN NERRS  0645   61        CALM     1020.0
FORT PULASKI     0742   64 63  140/  5/  8 1019.5F
SAPELO ISLAND    0700   65     140/  3     1020.0

$$

ANZ835-935-AMZ111-154-330-350-352-354-370-450-454-472-270900-
...C-MAN AND BUOY OBSERVATIONS...

STATION/POSITION TIME  TEMP    WIND        PRES    WAVE   SWELL
                       AIR SEA DIR/SP/G            HT/PER HT/PER/DIR
                 (UTC) (F)     (DEG/KT/KT) (MB)    (FT/S) (FT/S/D)
BUOY 41004       0750   71 74  170/ 12/ 14 1019.1F   5/10   3/130/10
BUOY 41008       0650   65 63  130/  6/  6 1019.6    4/ 9   3/110/ 9
FOLLY BEACH CMAN 0700   64     160/  7/  8 1020.5F
CAPERS NEARSHORE 0708   63     190/  4/  8 1019.9F
FRIPP NEARSHORE  0708   63 62  140/  6/ 10 1019.5F


STATION/POSITION TIME  TEMP    WIND        PRES    WAVE   SWELL
                       AIR SEA DIR/SP/G            HT/PER HT/PER/DIR
                 (UTC) (F)     (DEG/KT/KT) (MB)    (FT/S) (FT/S/D)
5E ST. MARYS GA  0730      65                N/A     3/ 9
FRYING PAN BUOY  0750   71 76  170/ 10/ 14 1020.0F   4/ 9   3/150/ 9
BUOY 41025       0750   69 76  170/ 14/ 17 1021.2F   4/10   3/130/10
CAPE LOOKOUT NC  0700   66     140/  8/  8 1020.7F
BUOY 41002       0750   68 72  120/ 12/ 14 1020.5F   5/ 8   5/ 90/ 8
BUOY 41010       NOT AVBL
ST AUGUSTINE FL  0800   65 69  260/  1/  2 1019.7F


$$




USA.gov is the U.S. government's official web portal to all federal, state and local government web resources and services.